Simultaneous Nadir Overpasses (SNOs) Predictions

Prediction of SNOs between NOAA-20 and LANDSAT-8 Satellite Orbit:

Table of predicted SNOs for the next 14.0 days since TLE Epoch: 8/25/2018
Index Date (NOAA-20) Time (NOAA-20) Lat,Lon (NOAA-20) SZA (NOAA-20 ) Date (LANDSAT-8) Time (LANDSAT-8) Lat,Lon (LANDSAT-8) SZA (LANDSAT-8 ) Distance(km) Time Diff (sec)
1 08/25/2018 06:31:58 -70.24,-102.06 120.54 08/25/2018 06:33:10 -70.21,-101.78 120.60 11.51 72
2 08/25/2018 07:22:40 70.02, 65.58 59.24 08/25/2018 07:22:39 70.00, 65.57 59.22 2.32 1
3 08/25/2018 08:13:21 -69.88,-126.88 120.90 08/25/2018 08:12:09 -69.89,-126.95 120.89 2.89 72
4 08/27/2018 22:48:51 -70.09, 13.94 119.78 08/27/2018 22:49:42 -70.11, 13.97 119.76 2.65 51
5 08/27/2018 23:39:35 69.98,-178.58 60.12 08/27/2018 23:39:10 69.96,-178.61 60.10 2.71 25
6 08/28/2018 00:30:01 -69.04, -9.90 120.84 08/28/2018 00:28:54 -69.07, -12.17 120.74 90.12 67
7 08/30/2018 15:05:45 -70.04, 129.78 118.88 08/30/2018 15:06:12 -70.07, 129.78 118.86 2.57 27
8 08/30/2018 15:56:29 69.94, -62.75 61.03 08/30/2018 15:55:39 69.96, -62.72 61.05 3.03 50
9 09/02/2018 06:32:01 70.26, 77.90 62.30 09/02/2018 06:33:11 70.23, 78.26 62.25 14.20 70
10 09/02/2018 07:22:40 -70.00,-114.39 117.96 09/02/2018 07:22:43 -70.02,-114.41 117.95 2.20 3
11 09/02/2018 08:13:23 69.84, 53.16 61.89 09/02/2018 08:12:11 69.85, 53.01 61.91 6.05 72
12 09/04/2018 22:48:53 70.06,-166.03 63.07 09/04/2018 22:49:44 70.06,-166.09 63.07 2.43 51
13 09/04/2018 23:39:35 -69.96, 1.45 117.03 09/04/2018 23:39:14 -69.96, 1.40 117.02 2.14 21
14 09/05/2018 00:30:02 68.95, 170.20 61.95 09/05/2018 00:28:56 69.02, 167.77 62.09 97.20 66
15 09/07/2018 15:05:49 70.08, -50.29 64.08 09/07/2018 15:06:14 70.06, -50.22 64.06 3.15 25
16 09/07/2018 15:56:31 -69.97, 117.20 116.02 09/07/2018 15:55:44 -69.96, 117.27 116.03 2.93 47




NCC Satellite Simultaneous Nadir Overpasses (SNOs) Prediction Service
